Volver al catálogo

STARLINK-31863

ActivoComunicacionesVLEO
NORAD 59789·PAYLOAD·🇺🇸 United States

Lanzado May 18, 2024 desde Cape Canaveral Space Force Station

Loading…

Próximos Pases (próximas 24 horas)

TLE

ActualizadoSource: CelesTrak SupGP

Época: Sep 14, 2026, 22:16 UTC

1 59789C 24093H   26257.92826389  .00015420  00000+0  55841-3 0  2579
2 59789  43.0027 219.8985 0001304 264.2329 334.3294 15.27576929    16

Sigue STARLINK-31863 en tiempo real con AllMySat

Download on the App Store